Tracking 29892 objects as of 21-Nov-2024
HD Live streaming from Space Station
objects crossing your sky now

STARLINK-3743

Track STARLINK-3743 now!
10-day predictions
STARLINK-3743 is classified as:


NORAD ID: 52118
Int'l Code: 2022-029AG
Perigee: 545.9 km
Apogee: 547.8 km
Inclination: 53.2 °
Period: 95.4 minutes
Semi major axis: 6917 km
RCS: Unknown
Launch date: March 19, 2022
Source: United States (US)
Launch site: AIR FORCE EASTERN TEST RANGE (AFETR)
Your satellite tracking list
Your tracking list is empty




NASA's NSSDC Master Catalog

Two Line Element Set (TLE):
1 52118U 22029AG  24325.25912891  .00002560  00000-0  17885-3 0  9990
2 52118  53.2164  48.9205 0001367 100.3691 259.7455 15.08846953149162
Source of the keplerian elements: AFSPC